Flag for Canada Weather past 2 weeks in Hay River, Northwest Territories, Canada

Now
-18 °F

Passing clouds.


Feels Like: -38 °F
Forecast: -22 / -16 °F
Wind: 9 mph from Northwest

Location: Hay River

Current Time: Jan 27, 2015 at 3:50:55 AM

Latest Report: Jan 27, 2015 at 3:00 AM


Visibility: 15 mi

Pressure: 30.31 "Hg

Humidity: 75%

Dew point: -24 °F

Location of Hay RiverLocation

Historic Weather in Hay River — Graph

°F

Hay River temperature yesterday

Maximum temperature yesterday: 5 °F (at 2:00 AM)
Minimum temperature yesterday: -15 °F (at 8:00 PM)
Average temperature yesterday: -4 °F

Past Weeks' High & Low Weather Summary

 TemperatureHumidityPressure
High27 °F (Jan 21, 3:00 PM)93% (Jan 21, 10:00 AM)30.37 "Hg (Jan 21, 10:00 AM)
Low-18 °F (Jan 15, 1:00 AM)69% (Jan 15, 5:00 AM)29.18 "Hg (Jan 16, 10:00 AM)
Average2 °F81%29.86 "Hg
* Reported Jan 12 2:00 AM — Jan 27 2:00 AM, Hay River, Weather by CustomWeather, © 2014

Note: Actual official high and low records may vary slightly from our data, if they occured in-between our weather recording intervals... More about our weather records

Advertising

Hay River weather history for previous 24 hours

 ConditionsComfort  
Time TempWeatherWind HumidityBarometerVisibility
2:00 AM
Jan 27
-17 °FPassing clouds.10 mph69%30.30 "Hg15 mi
1:00 AM-17 °FPassing clouds.12 mph69%30.28 "Hg15 mi
12:00 AM-15 °FPassing clouds.10 mph69%30.27 "Hg15 mi
11:00 PM
Jan 26
-15 °FPassing clouds.9 mph69%30.24 "Hg15 mi
10:00 PM-15 °FOvercast.12 mph69%30.22 "Hg15 mi
9:00 PM-15 °FPassing clouds.10 mph76%30.20 "Hg15 mi
8:00 PM-15 °FPartly cloudy.10 mph76%30.17 "Hg15 mi
7:00 PM-11 °FPassing clouds.12 mph70%30.15 "Hg15 mi
6:00 PM-11 °FPassing clouds.9 mph76%30.13 "Hg15 mi
5:00 PM-9 °FPassing clouds.8 mph77%30.10 "Hg15 mi
4:00 PM-6 °FScattered clouds.12 mph77%30.07 "Hg15 mi
3:00 PM-4 °FScattered clouds.15 mph77%30.05 "Hg15 mi
2:00 PM-2 °FPartly sunny.15 mph84%30.02 "Hg15 mi
1:00 PM0 °FMore clouds than sun.15 mph84%30.00 "Hg15 mi
12:00 PM1 °FLight snow. Overcast.15 mph78%29.97 "Hg4 mi
11:00 AM1 °FOvercast.13 mph78%29.94 "Hg15 mi
10:00 AM0 °FPartly sunny.12 mph84%29.90 "Hg15 mi
9:00 AM0 °FPassing clouds.10 mph84%29.87 "Hg15 mi
8:00 AM-2 °FPassing clouds.10 mph77%29.86 "Hg15 mi
7:00 AM-2 °FPassing clouds.10 mph84%29.85 "Hg15 mi
6:00 AM0 °FPassing clouds.8 mph84%29.83 "Hg15 mi
5:00 AM1 °FPassing clouds.8 mph85%29.81 "Hg15 mi
4:00 AM5 °FPassing clouds.8 mph85%29.79 "Hg15 mi
3:00 AM5 °FPassing clouds.8 mph85%29.79 "Hg15 mi
Weather by CustomWeather, © 2014

See weather overviewHow to use our weather pages